Home > Weather > Arctic Bay > Past weeks

Flag for Canada Weather for the Past 2 Weeks in Arctic Bay, Nunavut, Canada

Now
-33 °F

Passing clouds.


Feels Like: -51 °F
Forecast: N/A
Wind: 6 mph from Southwest

Location: Pond Inlet

Current Time: Feb 8, 2016 at 4:55:25 PM

Latest Report: Feb 8, 2016 at 4:00 PM


Visibility: 40 mi

Pressure: 29.97 "Hg

Humidity: 66%

Dew point: -40 °F

Location of Arctic BayLocation

Historic Weather in Arctic Bay — Graph

°F

Arctic Bay Temperature Yesterday

Maximum temperature yesterday: -22 °F (at 3:04 AM)
Minimum temperature yesterday: -33 °F (at 8:00 PM)
Average temperature yesterday: -28 °F

High & Low Weather Summary for the Past Weeks

 TemperatureHumidityPressure
High-15 °F (Feb 6, 6:00 AM)83% (Jan 29, 8:00 PM)30.11 "Hg (Jan 29, 8:00 PM)
Low-33 °F (Jan 27, 1:00 AM)60% (Feb 8, 3:00 AM)29.31 "Hg (Jan 26, 6:00 AM)
Average-25 °F71%29.78 "Hg
* Reported Jan 24 3:00 PM — Feb 8 3:00 PM, Arctic Bay, Weather by CustomWeather, © 2016

Note: Actual official high and low records may vary slightly from our data, if they occured in-between our weather recording intervals... More about our weather records

Advertising

Arctic Bay Weather History for the Previous 24 Hours

 ConditionsComfort  
Time TempWeatherWind HumidityBarometerVisibility
3:00 PM
Mon, Feb 8
-33 °FPassing clouds.7 mph66%29.96 "Hg40 mi
2:00 PM-31 °FPassing clouds.5 mph67%29.97 "Hg40 mi
1:00 PM-29 °FLight snow. Partly cloudy.6 mph67%29.95 "Hg40 mi
12:53 PM-29 °FPartly cloudy.7 mph67%29.95 "Hg40 mi
12:00 PM-33 °FBroken clouds.7 mph66%29.94 "Hg40 mi
11:00 AM-31 °FScattered clouds.6 mph67%29.93 "Hg35 mi
10:00 AM-31 °FScattered clouds.7 mph67%29.93 "Hg9 mi
9:00 AM-31 °FPassing clouds.5 mph67%29.93 "Hg9 mi
8:00 AM-33 °FClear.7 mph66%29.92 "Hg9 mi
7:00 AM-31 °FClear.6 mph74%29.90 "Hg9 mi
6:00 AM-31 °FClear.7 mph67%29.90 "Hg9 mi
5:00 AM-29 °FClear.7 mph67%29.90 "Hg9 mi
4:00 AM-29 °FClear.8 mph67%29.89 "Hg9 mi
3:00 AM-29 °FClear.7 mph60%29.88 "Hg9 mi
2:00 AM-27 °FClear.6 mph67%29.87 "Hg9 mi
1:00 AM-31 °FPassing clouds.8 mph67%29.87 "Hg9 mi
12:00 AM-31 °FClear.9 mph67%29.87 "Hg9 mi
11:00 PM
Sun, Feb 7
-31 °FClear.8 mph67%29.86 "Hg9 mi
10:00 PM-31 °FClear.9 mph67%29.86 "Hg9 mi
9:00 PM-33 °FClear.8 mph66%29.86 "Hg9 mi
8:00 PM-33 °FClear.7 mph74%29.86 "Hg9 mi
7:00 PM-29 °FClear.8 mph67%29.85 "Hg9 mi
6:00 PM-31 °FClear.8 mph67%29.85 "Hg9 mi
5:00 PM-29 °FPassing clouds.3 mph67%29.85 "Hg9 mi
4:00 PM-31 °FClear.5 mph67%29.85 "Hg8 mi
Weather by CustomWeather, © 2016

See weather overviewHow to use our weather pages